Cloud_Cover
100 100 27 100 100 100 100 100 100 100 99 100 100 100 97 19 0 0 0 0 0 0 0 0 0 0 0 5 5 86 95 100 100 100 100 90 100 93 88 85 24 98 60 8 20
100 100 94 46 13 70 90 67 19 100 100 100 100 100 70 100 0 0 0 0 0 0 0 0 0 0 0 5 10 7 100 97 100 100 100 100 96 69 28 84 6 99 10 41 28
68 53 87 99 100 92 73 46 43 85 97 100 100 54 99 64 0 0 0 0 0 0 0 0 0 0 0 5 7 33 61 100 76 100 100 100 90 47 26 69 6 39 5 30 11
100 100 100 100 100 98 90 95 100 98 60 100 100 100 13 1 0 0 0 0 0 0 0 0 0 0 0 5 5 5 97 98 89 76 100 97 100 98 17 39 4 10 5 5 9
82 100 100 100 42 48 41 28 71 98 63 100 81 89 2 0 0 0 0 0 0 0 0 0 0 0 0 1 4 0 5 100 94 100 100 100 100 85 30 7 4 5 6 5 5
92 25 89 28 32 45 42 61 89 100 100 98 22 59 0 0 0 0 0 0 0 0 0 0 0 0 0 2 3 1 1 14 100 100 100 99 100 56 19 9 5 6 52 5 5
16 6 2 23 31 49 97 100 93 100 100 41 24 5 0 0 0 0 0 0 0 0 0 0 0 0 0 3 5 3 5 5 4 99 100 100 100 96 78 76 34 100 84 4 5
36 24 12 26 24 48 100 98 85 78 22 1 18 0 0 0 0 0 0 0 0 0 0 0 0 0 0 0 41 61 5 17 5 22 100 100 100 100 100 99 66 98 67 7 33
29 0 1 20 22 84 97 16 12 3 0 0 2 0 0 0 0 0 0 0 0 0 0 0 0 0 0 0 4 8 98 9 10 96 67 100 100 100 91 97 41 83 16 67 6
42 0 0 0 7 54 20 0 0 0 0 0 0 0 0 0 0 0 0 0 0 0 0 0 0 0 0 0 38 100 24 6 5 4 60 100 100 100 100 100 86 42 100 100 63
40 0 0 0 0 9 0 0 0 0 0 0 0 0 0 0 0 0 0 0 0 0 0 0 0 0 0 2 4 52 81 56 5 37 5 5 100 100 100 100 100 99 100 97 68
43 0 0 0 0 0 0 0 0 0 0 0 0 0 0 0 0 0 0 0 0 0 0 0 0 0 0 0 37 10 69 80 53 7 71 5 65 98 100 100 100 99 96 87 100
52 0 0 0 0 0 0 0 0 0 4 3 4 1 3 0 0 0 0 0 0 0 0 0 0 0 0 0 38 27 5 6 13 5 6 40 24 20 95 94 100 71 75 85 100
40 3 1 28 5 5 0 2 5 1 5 5 5 5 5 5 0 0 0 0 0 0 0 0 0 0 0 0 2 16 0 5 5 5 5 5 5 24 88 66 91 20 44 49 43
3 5 5 13 52 11 5 5 5 0 5 2 5 5 0 0 0 0 0 0 0 0 0 0 0 0 0 0 8 5 0 0 3 5 5 5 5 5 5 100 92 100 66 91 99
5 5 46 25 74 11 5 5 9 20 5 5 5 5 0 0 0 0 0 0 0 0 0 0 0 0 0 0 5 0 0 5 5 4 3 5 4 5 4 0 38 100 88 72 100
22 6 98 7 5 5 51 21 93 95 89 36 6 5 5 5 4 0 0 0 0 0 0 0 0 0 0 0 0 1 5 47 34 3 5 92 11 5 4 0 0 1 46 97 99
8 21 5 21 5 5 5 5 45 88 100 12 37 5 5 5 5 5 0 0 0 0 0 0 0 0 0 0 0 4 7 56 40 4 2 1 2 0 0 0 0 0 0 67 97
6 21 12 21 9 5 6 5 5 5 33 8 7 5 5 5 5 5 4 0 0 0 0 0 0 0 0 0 0 0 5 6 5 5 0 0 0 0 0 0 0 0 0 0 50
47 100 91 95 100 99 79 24 5 5 88 34 6 5 7 10 85 18 16 0 0 0 0 0 1 0 5 1 2 0 0 0 0 2 3 0 0 0 0 0 0 0 0 0 0
100 76 91 87 100 97 97 99 29 9 5 56 30 18 46 37 99 5 99 11 0 0 0 2 3 0 0 5 4 0 0 0 0 0 0 0 0 0 0 0 0 0 0 0 0
22 71 8 6 6 6 6 16 5 5 5 8 96 77 6 85 100 100 100 100 3 0 0 0 0 0 0 0 2 0 0 0 0 0 0 0 0 0 0 0 0 0 0 0 0
5 4 3 0 1 0 2 0 2 5 23 11 63 82 5 44 72 100 100 99 90 5 4 7 0 0 0 0 0 0 0 0 0 0 0 0 0 0 0 0 0 0 0 0 0
4 0 0 0 0 0 0 0 0 2 50 100 95 5 5 17 75 95 100 100 100 17 5 6 5 5 7 5 4 0 0 0 0 0 0 0 0 0 0 0 0 0 0 0 0
5 1 0 0 0 0 0 0 0 0 0 26 98 12 5 96 28 100 100 100 100 69 4 5 5 5 5 5 5 1 0 0 0 0 0 0 0 0 0 0 0 0 0 0 0
5 5 2 0 5 5 0 0 0 0 3 5 0 0 5 5 5 85 98 100 100 100 90 5 5 5 4 0 0 0 0 0 0 0 0 0 0 0 0 0 0 0 0 0 0
5 3 5 5 5 1 0 0 0 4 5 1 1 2 5 3 5 5 12 99 100 100 100 76 5 5 5 2 0 0 0 0 0 0 0 0 0 0 0 0 0 0 0 0 0